Regional Weather Roundup
Issued by NWS

Home | Current Version | Previous Version | Graphics & Text | Print | Product List | Glossary Off
Versions: 1 2 3 4 5 6 7 8 9 10 11 12 13 14 15 16 17 18 19 20 21 22 23 24 25 26 27 28 29 30 31 32 33 34 35 36 37 38 39 40 41 42 43 44 45 46 47 48 49 50

000
ASUS43 KTOP 042208
RWRKS

WEATHER ROUNDUP FOR KANSAS
NATIONAL WEATHER SERVICE GOODLAND KS
500 PM CDT WED MAY 04 2016

NOTE:  "FAIR" INDICATES FEW OR NO CLOUDS BELOW 12,000 FEET WITH NO
SIGNIFICANT WEATHER AND/OR OBSTRUCTIONS TO VISIBILITY.

KSZ001>006-013>018-027>032-041>047-042300-
NORTHWEST KANSAS

CITY           SKY/WX    TMP DP  RH WIND       PRES   REMARKS
GOODLAND       SUNNY     75  38  26 NE3       30.12F
HAYS           SUNNY     73  41  31 N6G17     30.08F
HILL CITY      SUNNY     77  38  24 NE7       30.08F
RUSSELL        SUNNY     74  38  27 N9        30.05F
$$

KSZ061>065-074>080-084>089-042300-
SOUTHWEST KANSAS

CITY           SKY/WX    TMP DP  RH WIND       PRES   REMARKS
DODGE CITY     SUNNY     75  42  30 N15       30.09F
ELKHART          N/A     77  41  27 NE6         N/A
GARDEN CITY    SUNNY     76  40  27 N10       30.09F
GREAT BEND     SUNNY     72  43  35 N14       30.06F
LIBERAL        SUNNY     77  43  29 NW5       30.12S
PRATT          SUNNY     72  38  28 N14G21    30.06F
$$

KSZ066>073-081>083-090>101-042300-
SOUTHEAST KANSAS

CITY           SKY/WX    TMP DP  RH WIND       PRES   REMARKS
CHANUTE        SUNNY     73  37  27 NW14G22   29.98F
COFFEYVILLE    SUNNY     73  40  30 N16       29.98S
HUTCHINSON     SUNNY     75  35  23 N14G23    30.04F
MEDICINE LODGE   N/A     77  42  28 N13G21    30.03F
NEWTON         SUNNY     72  36  26 N12G20    30.06S
PARSONS        SUNNY     73  39  29 N15G23    29.99S
WICHITA INTL   SUNNY     75  32  20 N21       30.03S
WICHITA JABRA  SUNNY     73  34  23 NW18      30.02F
WICHITA MCCONL SUNNY     73  36  26 N10G22    30.02F
WINFIELD       SUNNY     74  36  25 N16       30.37R
$$

KSZ007>012-019>026-033>040-048>060-102>105-042300-
NORTHEAST KANSAS

CITY           SKY/WX    TMP DP  RH WIND       PRES   REMARKS
CONCORDIA      SUNNY     71  33  24 N14       30.05F
EMPORIA        SUNNY     71  34  25 N10G21    30.00F
LAWRENCE       SUNNY     71  40  32 NW17      29.99S
MANHATTAN      SUNNY     73  36  25 VRB7      30.01F
MARYSVILLE     SUNNY     70  41  35 N13       30.02F
OLATHE IND     SUNNY     69  38  32 N18       29.99S
OLATHE EXE     SUNNY     69  36  29 NW16G28   29.97F
SALINA         SUNNY     74  35  24 N14G24    30.05S
TOPEKA BILLARD SUNNY     71  38  29 NW17      29.99F
TOPEKA FORBES  SUNNY     72  38  29 NW13      29.99F
$$



USA.gov is the U.S. government's official web portal to all federal, state and local government web resources and services.